www.pogodaiklimat.ru

Погода и климат >> Архив погоды >> Россия >> Калининградская область >> Балтийск


ПОГОДА в Балтийске

  • Прогноз погоды в Балтийске
  • Монитор погоды в Балтийске
  • Климат города

АРХИВ ПОГОДЫ в Балтийске

Время (UTC), дата Ветер
(напр.,м/с)
 
Видим.   Явления Облачность Т
(С)
Тd
(С)
f
(%)
Тe
(С)
Тes
(С)
Комфортность P
(гПа)
Po
(гПа)
Тmin
(С)
Tmax
(С)
R
(мм)
R24
(мм)
S
(см)
09 13.06 З 4-5
{5}
20 км 9/9 600 м
[Cu Sc]
+17.6 +15.0 85 +17 +18 1009.4 1008.9
12 13.06 З 2-4
{5}
20 км 9/8 600 м
[Sc diur, vesp Ac trans]
+18.8 +14.7 77 +20 +22 1009.6 1009.1
15 13.06 СЗ 2-3
{4}
20 км 9/8 600 м
[Sc diur, vesp Ac trans]
+17.5 +13.8 79 +18 +19 1009.6 1009.0
18 13.06 СЗ 1-3
{4}
20 км 9/9 600 м
[Cu Sc]
+16.1 +14.4 90 +17 +17 1010.1 1009.6 +18.9
21 13.06 СЗ 2-3
{4}
20 км слабый ливневой дождь 10/10 300 м
[Cb cap]
+15.2 +14.3 94 +15 +15 1011.4 1010.9
00 14.06 штиль 0
{3}
20 км слабый ливневой дождь 8/8 300 м
[Cb cap]
+14.7 +14.1 96 +14 +14 1011.5 1011.0
03 14.06 З 3-3
{4}
20 км слабый ливневой дождь 9/9 300 м
[Cb cap]
+15.5 +14.3 93 +15 +15 1011.7 1011.2 +14.6 9
06 14.06 З 3-5
{6}
20 км {ливн. осадки} 9/9 600 м
[Cu Sc]
+16.5 +14.7 89 +16 +17 1012.7 1012.1 +14.6 9
09 14.06 СЗ 3-4
{5}
20 км 6/6 600 м
[Cu Sc]
+18.1 +15.1 83 +18 +23 1013.7 1013.2
12 14.06 З 3-5
{6}
20 км 8/8 600 м
[Cu Sc]
+19.2 +15.8 81 +21 +24 комфорт 1014.1 1013.6
15 14.06 СЗ 4-7
{8}
20 км 9/9 600 м
[Cu Sc]
+18.2 +13.9 76 +18 +19 1014.0 1013.5 0.3
18 14.06 С 2-4
{7}
20 км 4/0
[Ci fib]
+17.1 +12.2 73 +17 +18 1014.1 1013.6 +19.3
21 14.06 СВ 1-2
{5}
20 км 3/3 600 м
[Sc diur, vesp Ci fib]
+14.1 +12.0 87 +14 +14 1015.2 1014.7
00 15.06 СВ 1-1
{3}
20 км 5/3 600 м
[Cu Sc Ci fib]
+14.4 +12.6 89 +15 +15 1015.2 1014.6
03 15.06 В 1-1
{2}
20 км 4/0
[Ci fib]
+13.8 +13.4 97 +14 +14 1015.0 1014.5 +13.1
06 15.06 Ю 1-2
{3}
20 км 8/6 600 м
[Sc Ci sp]
+17.0 +13.8 81 +18 +20 1015.9 1015.4 +13.1
09 15.06 З 2-3
{3}
20 км 8/4 600 м
[Cu Sc Ac trans]
+19.0 +14.2 74 +21 +26 комфорт 1016.8 1016.3
12 15.06 СЗ 3-4
{5}
20 км 8/5 600 м
[Cu Sc Ac trans]
+18.8 +13.5 71 +20 +24 1016.8 1016.3
15 15.06 С 2-3
{5}
20 км 9/9 600 м
[Cu Sc]
+17.9 +12.4 70 +18 +19 1016.9 1016.4
18 15.06 СВ 1-2
{6}
20 км 9/9 600 м
[Cu Sc]
+17.9 +11.8 67 +19 +19 1017.3 1016.7 +19.9
21 15.06 СВ 1-2
{2}
20 км 4/4 600 м
[Cu Sc]
+15.0 +13.0 88 +15 +15 1017.6 1017.1
00 16.06 СВ 1-1
{2}
20 км 3/3 600 м
[Cu Sc]
+13.6 +12.5 93 +14 +14 1018.3 1017.8
03 16.06 С 1-1
{1}
20 км 8/8 600 м
[Cu Sc]
+15.6 +13.5 87 +16 +16 1018.3 1017.8 +13.3
06 16.06 Ю 1-1
{2}
20 км 9/9 600 м
[Cu Sc]
+18.2 +13.1 72 +20 +20 1018.4 1017.9 +13.3
09 16.06 З 2-3
{3}
20 км 8/8 600 м
[Cu Sc]
+19.2 +12.0 63 +21 +24 комфорт 1018.9 1018.4
12 16.06 З 2-3
{3}
20 км 6/6 600 м
[Sc diur, vesp]
+20.0 +14.7 72 +23 +29 комфорт 1018.3 1017.8
15 16.06 СЗ 2-4
{5}
20 км 8/3 600 м
[Sc diur, vesp Ac trans]
+20.2 +15.2 73 +23 +26 комфорт 1018.0 1017.5
18 16.06 С 2-3
{4}
20 км 3/1 600 м
[Sc Ci sp]
+18.2 +12.9 71 +19 +19 1017.2 1016.7 +21.2
21 16.06 СВ 1-2
{3}
20 км 1/1 600 м
[Sc]
+15.1 +13.3 89 +16 +16 1017.1 1016.6
00 17.06 В 2-3
{3}
20 км 3/3 600 м
[Sc]
+16.6 +13.8 84 +17 +17 1017.3 1016.8
03 17.06 штиль 0
{3}
20 км 1/1 600 м
[Sc]
+14.4 +13.9 97 +14 +14 1016.7 1016.2 +14.1
06 17.06 ЮВ 1-3
{3}
20 км ясно +19.0 +13.9 72 +21 +28 комфорт 1016.6 1016.1 +14.1
09 17.06 Ю 2-2
{3}
20 км 1/0
[Ci fib]
+22.8 +13.9 57 +26 +40 жарко 1016.2 1015.7
12 17.06 штиль 0
{4}
20 км 1/1 600 м
[Cu med, cong]
+26.2 +10.4 37 +27 +45 жарко 1015.1 1014.6
15 17.06 ЮВ 1-2
{3}
20 км 5/3 600 м
[Cu Sc Ci fib]
+26.8 +12.1 40 +28 +33 жарко 1013.9 1013.4
18 17.06 В 1-3
{3}
20 км 4/1 600 м
[Cu Sc Ci fib]
+25.6 +11.5 41 +27 +27 жарко 1013.5 1013.0 +27.4
21 17.06 СЗ 5-10
{10}
20 км 4/0
[Ci fib]
+19.5 +17.0 85 +21 +21 комфорт 1015.0 1014.4
00 18.06 СЗ 3-6
{10}
20 км 9/0
[Ci fib]
+18.6 +13.9 74 +19 +19 1015.8 1015.3
03 18.06 СЗ 3-6
{7}
20 км 9/0
[Ci fib]
+18.1 +15.4 84 +18 +19 1016.2 1015.7 +17.8
06 18.06 СЗ 3-6
{6}
20 км 8/0
[Ac trans]
+19.1 +13.7 71 +21 +23 комфорт 1017.8 1017.2 +17.8
09 18.06 СЗ 2-4
{6}
20 км 8/5 600 м
[Cu Sc Ac trans]
+19.5 +13.8 70 +22 +26 комфорт 1018.8 1018.3
12 18.06 СЗ 2-4
{5}
20 км 9/9 600 м
[Cu Sc]
+19.9 +12.6 63 +22 +24 комфорт 1019.4 1018.8
15 18.06 СЗ 2-3
{5}
20 км 8/3 600 м
[Cu Sc Ac trans]
+19.7 +12.9 65 +22 +25 комфорт 1018.9 1018.4
18 18.06 С 1-1
{3}
20 км 6/6 600 м
[Sc]
+18.0 +11.5 66 +19 +19 1018.4 1017.8 +21.0
21 18.06 ЮВ 2-3
{3}
20 км 9/9 600 м
[Sc]
+19.3 +11.4 60 +21 +21 комфорт 1018.7 1018.2
00 19.06 штиль 0
{3}
20 км 6/6 600 м
[Cu Sc]
+16.7 +13.7 82 +17 +17 1017.7 1017.2
03 19.06 Ю 3-4
{4}
20 км 4/4 600 м
[Cu Sc]
+17.8 +14.6 82 +18 +18 1016.8 1016.3 +15.6
06 19.06 ЮЗ 6-9
{9}
20 км 8/3 600 м
[Sc Ac trans]
+19.5 +14.6 73 +21 +22 комфорт 1016.5 1016.0 +15.6
09 19.06 З 7-9
{9}
20 км 10/0
[Ac und]
+20.6 +16.0 75 +23 +25 комфорт 1016.5 1016.0
12 19.06 З 6-12
{12}
20 км 8/6 600 м
[Sc diur, vesp Ci fib]
+20.1 +13.5 66 +22 +24 комфорт 1017.5 1017.0
15 19.06 СЗ 5-10
{14}
20 км 6/6 600 м
[Sc diur, vesp]
+19.4 +14.7 74 +21 +22 комфорт 1017.6 1017.0
18 19.06 З 5-8
{10}
20 км 9/3 600 м
[Cu Sc Ci fib]
+18.8 +15.1 79 +20 +20 1018.2 1017.6 +21.7
21 19.06 З 9-11
{12}
20 км 8/8 600 м
[Cu Sc]
+18.7 +13.7 73 +19 +19 1018.5 1018.0
00 20.06 З 9-12
{12}
20 км 4/4 600 м
[Cu Sc]
+17.7 +13.6 77 +17 +17 1018.7 1018.1
03 20.06 З 9-11
{12}
20 км 1/1 600 м
[Cu Sc]
+17.1 +14.1 83 +16 +16 1019.3 1018.8 +17.0

 

Местоположение метеостанции Балтийск (Калининградская область, Россия): широта 54.65 долгота 19.88 высота над уровнем моря 4 м.

В архиве по умолчанию представлена погода в Балтийске за последнюю неделю. Архивные данные за месяц целиком и за предыдущие месяцы, начиная с января 2011 года, Вы можете получить, выбрав интересующий диапазон дат из раскрывающегося списка и нажав кнопку "Ввод!".


*Определитесь, кто Вы:
робот инопланетянин человек

Внимание! Время в таблицах - всемирное. Для получения местного времени необходимо прибавить поправку, которая в Балтийске равна 2 ч.

Смотрите также архив погоды в соседних городах и на ближайших метеорологических станциях:

Погода в Мамоново (Калининградская область, Россия) (20 км)
Погода в Рыбном Порту (Калининградская область, Россия) (37 км)
Погода в Пионерском (Калининградская область, Россия) (40 км)
Погода в Калининграде (Калининградская область, Россия) (48 км)
Погода в Elblag (Польша) (61 км)
Погода в Hel (Польша) (68 км)
Погода в Рыбачьем (Калининградская область, Россия) (84 км)
Погода в Oksywie (Польша) (88 км)
Погода в Железнодорожном (Калининградская область, Россия) (97 км)
Погода в Olsztyn (Польша) (104 км)

Пояснения к столбцам:

Ветер - указаны скорость ветра в м/с - средняя за 10 мин, порывы в срок и между сроками (в фигурных скобках) и направление, откуда дует ветер: С - северный, СВ - северо-восточный, В - восточный, ЮВ - юго-восточный, Ю - южный, ЮЗ - юго-западный, З - западный, СЗ - северо-западный.
Видимость - горизонтальная дальность видимости в метрах или километрах. При видимости от 1 до 10 км при отсутствии осадков обычно наблюдается дымка, при ухудшении видимости до 1 км и менее - туман. В сухую погоду видимость может ухудшаться дымом, пылью или мглою.
Явления - указаны атмосферные явления, наблюдавшиеся в срок или в последний час перед сроком; фигурными скобками обозначены явления, наблюдавшиеся между сроками (за 1-3 часа до срока); квадратными скобками обозначены град или гололедные отложения с указанием их диаметра в мм.
Облачность - указаны через наклонную черту общая и нижняя облачность в баллах и высота нижней границы облаков в метрах; квадратными скобками обозначены формы облаков: Ci - перистые, Cs - перисто-слоистые, Cc - перисто-кучевые, Ac - высококучевые, As - высокослоистые, Sc - слоисто-кучевые, Ns - слоисто-дождевые, Cu - кучевые, Cb - кучево-дождевые. Подробнее классификацию облаков см. в Атласе облаков (PDF).
T - Температура воздуха - температура, измеренная на высоте 2 м над землей.
Td - Температура точки росы - температура, при понижении до которой содержащийся в воздухе водяной пар достигнет насыщения.
f - Относительная влажность воздуха - влажноcть воздуха, измеренная на высоте 2 м над землей.
Te - Эффективная температура - температура, которую ощущает одетый по сезону человек в тени. Характеристика душности погоды. При расчете учитывается влияние влажности воздуха и скорости ветра на теплоощущения человека.
Tes - Эффективная температура на солнце - температура, которую ощущает человек, с поправкой на солнечный нагрев. Характеристика знойности погоды. Зависит от высоты солнца над горизонтом, облачности и скорости ветра. Ночью, в пасмурную погоду, а также при ветре 12 м/с и более поправка равна нулю.
P - Атмосферное давление - приведенное к уровню моря атмосферное давление.
Po - Атмосферное давление - измеренное на уровне метеостанции атмосферное давление.
Tmin - Минимальная температура - минимум температуры воздуха на высоте 2 м над землей.
Tmax - Максимальная температура - максимум температуры воздуха на высоте 2 м над землей.
R - Количество осадков - Количество выпавших осадков за период времени, мм. При наведении курсора мыши на число - период времени, за который выпало указанное количество осадков.
R24 - Количество осадков - Количество выпавших осадков за 24 часа, мм.
S - Снежный покров - Высота снежного покрова, см. При наведении курсора мыши на число - состояние снежного покрова и степень покрытия местности в баллах.